Weather History for KPQL - January, 2013

Change the Weather History Date:

Thursday, January 17, 2013

  Actual Average Record
Temperature  
Mean Temperature 45 °F -  
Max Temperature 53 °F 59 °F 75 °F (1949)
Min Temperature 37 °F 39 °F 18 °F (1977)
Degree Days  
Heating Degree Days 20    
Moisture  
Dew Point 33 °F    
Average Humidity 69    
Maximum Humidity 97    
Minimum Humidity 41    
Precipitation  
Precipitation 0.00 in - - ()
Sea Level Pressure  
Sea Level Pressure 30.23 in    
Wind  
Wind Speed 11 mph (NW)    
Max Wind Speed 16 mph    
Max Gust Speed 28 mph    
Visibility 10 miles    
Events      
Averages and records for this station are not official NWS values.
T = Trace of Precipitation, MM = Missing Value Source: NWS Daily Summary

Daily Weather History Graph

Daily Weather History Graph

Search for Another Location

Airport or City:

Trip Planner

Search our weather history database for the weather conditions in past years. The results will help you decide how hot, cold, wet, or windy it might be!

Date:

Astronomy

Jan. 17, 2013 Rise Set
Actual Time 6:51 AM CST 5:17 PM CST
Civil Twilight 6:25 AM CST 5:43 PM CST
Nautical Twilight 5:56 AM CST 6:12 PM CST
Astronomical Twilight 5:27 AM CST 6:41 PM CST
Moon 10:28 AM CST (1/17) 11:35 PM CST (1/17)
Length of Visible Light 11h 18m
Length of Day
10h 26m
Waxing Crescent, 38% of the Moon is Illuminated
Jan 17
Waxing Crescent
Jan 18
First Quarter
Jan 26
Full
Feb 3
Last Quarter
Feb 10
New

Hourly Weather History & Observations

Time (CST) Temp. Windchill Dew Point Humidity Pressure Visibility Wind Dir Wind Speed Gust Speed Precip Events Conditions
12:53 AM 39.9 °F 33.9 °F 37.9 °F 93% 30.09 in 10.0 mi West 9.2 mph - N/A   Overcast
1:53 AM 39.0 °F 32.3 °F 37.9 °F 96% 30.10 in 7.0 mi WNW 10.4 mph - N/A   Overcast
2:53 AM 37.9 °F 32.1 °F 37.0 °F 97% 30.11 in 9.0 mi WNW 8.1 mph 18.4 mph 0.00 in   Overcast
3:53 AM 37.9 °F 32.1 °F 37.0 °F 97% 30.11 in 10.0 mi West 8.1 mph - N/A   Overcast
4:53 AM 37.9 °F 31.5 °F 37.0 °F 97% 30.12 in 10.0 mi West 9.2 mph - N/A   Overcast
5:43 AM 37.4 °F 29.8 °F 33.8 °F 87% 30.12 in 10.0 mi NW 11.5 mph 21.9 mph N/A   Overcast
6:53 AM 37.0 °F 28.1 °F 30.9 °F 79% 30.17 in 10.0 mi WNW 15.0 mph 25.3 mph N/A   Overcast
7:53 AM 37.0 °F 29.8 °F 30.0 °F 76% 30.20 in 10.0 mi NW 10.4 mph 18.4 mph N/A   Mostly Cloudy
8:53 AM 39.0 °F 31.8 °F 30.0 °F 70% 30.23 in 10.0 mi NW 11.5 mph 25.3 mph N/A   Overcast
9:53 AM 43.0 °F 36.4 °F 30.9 °F 62% 30.24 in 10.0 mi NW 12.7 mph 23.0 mph N/A   Mostly Cloudy
10:53 AM 46.0 °F 41.0 °F 32.0 °F 58% 30.22 in 10.0 mi NNW 10.4 mph 24.2 mph N/A   Mostly Cloudy
11:53 AM 48.9 °F - 32.0 °F 52% 30.21 in 10.0 mi NW 12.7 mph 23.0 mph N/A   Partly Cloudy
12:53 PM 50.0 °F - 33.1 °F 52% 30.20 in 10.0 mi NW 16.1 mph 26.5 mph N/A   Scattered Clouds
1:53 PM 51.1 °F - 34.0 °F 52% 30.19 in 10.0 mi NNW 11.5 mph 20.7 mph N/A   Mostly Cloudy
2:53 PM 53.1 °F - 30.0 °F 41% 30.20 in 10.0 mi NNW 12.7 mph 27.6 mph N/A   Clear
3:53 PM 52.0 °F - 32.0 °F 47% 30.24 in 10.0 mi NNW 11.5 mph 21.9 mph N/A   Scattered Clouds
4:53 PM 50.0 °F - 33.1 °F 52% 30.27 in 10.0 mi NNW 10.4 mph 17.3 mph N/A   Clear
5:53 PM 46.9 °F - 33.1 °F 59% 30.30 in 10.0 mi NNW 10.4 mph - N/A   Clear
6:53 PM 46.9 °F - 33.1 °F 59% 30.34 in 10.0 mi North 9.2 mph 16.1 mph N/A   Clear
7:53 PM 45.0 °F 40.1 °F 33.1 °F 63% 30.36 in 10.0 mi North 9.2 mph - N/A   Clear
8:53 PM 46.0 °F 40.2 °F 33.1 °F 61% 30.37 in 10.0 mi North 12.7 mph 23.0 mph N/A   Clear
9:53 PM 45.0 °F 38.9 °F 33.1 °F 63% 30.38 in 10.0 mi North 12.7 mph 19.6 mph N/A   Clear
10:53 PM 44.1 °F 38.6 °F 34.0 °F 68% 30.37 in 10.0 mi North 10.4 mph - N/A   Clear
11:53 PM 43.0 °F 36.8 °F 34.0 °F 71% 30.38 in 10.0 mi North 11.5 mph - N/A   Clear